Regional Weather Roundup
Issued by NWS Green Bay, WI

Home | Current Version | Previous Version | Graphics & Text | Print | Product List | Glossary Off
Versions: 1 2 3 4 5 6 7 8 9 10 11 12 13 14 15 16 17 18 19 20 21 22 23 24 25 26 27 28 29 30 31 32 33 34 35 36 37 38 39 40 41 42 43 44 45 46 47 48 49 50

000
ASUS43 KGRB 052211
RWRGRB

NORTH-CENTRAL AND NORTHEAST WISCONSIN REGIONAL WEATHER ROUNDUP
NATIONAL WEATHER SERVICE GREEN BAY WI
400 PM CST MON DEC 05 2016

WIZ005-009-010>012-018-019-052300-
NORTH CENTRAL WISCONSIN

CITY           SKY/WX    TMP DP  RH WIND       PRES   REMARKS
IRONWOOD       MOCLDY    37  29  72 E5        29.79S
MANITOWISH WTR CLOUDY    35  32  88 S6        29.82R
ARBOR VITAE    CLOUDY    37  31  81 S5        29.82R
EAGLE RIVER    CLOUDY    36  29  75 CALM      29.81S
LAND O LAKES   PTCLDY    35  30  83 CALM      29.83R
RHINELANDER    CLOUDY    36  30  79 S7G17     29.84R
PHILLIPS       CLOUDY    33  31  91 S8        29.81R
ANTIGO         CLOUDY    31  31  99 S14       29.87R FOG
TOMAHAWK       CLOUDY    32  30  90 CALM      29.84S
MERRILL        CLOUDY    33  32  97 S6        29.87R
$$

WIZ013-073-052300-
NORTHEAST WISCONSIN

CITY           SKY/WX    TMP DP  RH WIND       PRES   REMARKS
IRON MOUNTAIN  CLEAR     35  29  78 S9        29.86R
MARINETTE      CLOUDY    35  31  85 SW8       29.93S
OCONTO         CLOUDY    34  31  88 SW5       29.94R
$$

WIZ017-030-035>037-045-052300-
CENTRAL WISCONSIN

CITY           SKY/WX    TMP DP  RH WIND       PRES   REMARKS
MEDFORD        CLOUDY    32  31  95 SE9       29.84R FOG
WAUSAU         CLOUDY    33  31  92 S9        29.87R
MOSINEE        CLOUDY    32  32 100 SE8       29.88R FOG
MARSHFIELD     CLOUDY    33  31  92 S10       29.86R FOG
WISC RAPIDS    CLOUDY    34  33  96 S6        29.91R FOG
STEVENS POINT  CLOUDY    32  32 100 S8        29.90R FOG
WAUPACA        CLOUDY    35  32  88 S6        29.93R FOG
SHAWANO        CLOUDY    35  32  89 S3        29.93R
CLINTONVILLE   CLOUDY    32  32 100 S10       29.92R FOG
WAUTOMA        CLOUDY    34  31  88 S8        29.93S FOG
$$

WIZ038-039-048-051-052300-
FOX VALLEY

CITY           SKY/WX    TMP DP  RH WIND       PRES   REMARKS
NWS GREEN BAY  CLOUDY    35  34  96 S9        29.95R
APPLETON       CLOUDY    34  32  93 S9        29.92R FOG
OSHKOSH        CLOUDY    33  31  92 S13       29.94R FOG
FOND DU LAC    CLOUDY    33  29  85 S13       29.96R
$$

WIZ022-050-052-052300-
EAST CENTRAL WISCONSIN

CITY           SKY/WX    TMP DP  RH WIND       PRES   REMARKS
EPHRAIM        FAIR      33  31  91 S6        29.92S
WASHINGTON ISL MOCLDY    35  31  83 S9        29.92S
STURGEON BAY   CLEAR     34  30  85 S7        29.94R
MANITOWOC      CLOUDY    34  32  92 S9        29.96R FOG
SHEBOYGAN      CLOUDY    33  31  92 S13       29.96R FOG
$$

LMZ563-521-522-541>543-052300-
LAKESHORE

STATION/POSITION TIME  TEMP    WIND        PRES    VSBY  WAVE
                       AIR SEA DIR/SP/G                  HT/PER
                 (UTC) (F)     (DEG/KT/KT) (MB)    (MI)  (FT/S)
SHEBOYGAN LKSHOR 2200   35     200/ 16/ 19 1015.2R
KEWAUNEE LKSHORE 2142   35     190/ 10/ 12 1013.7R
ALGOMA MARINA    2121          210/ 13/ 15   N/A
NORTHPORT PIER   2140   37     160/  4/  9 1013.5R
SISTER BAY LKSHO 2153   36     180/  8/  9   N/A
CHAMBERS ISLAND  2140   37     150/  2/ 11 1012.9S
MENOMINEE LKSHOR 2142   36     180/ 10/ 13 1012.4F
$$




USA.gov is the U.S. government's official web portal to all federal, state and local government web resources and services.